When you browse on this site, cookies collect data to enhance your experience and personalize the content and advertising you see.
Visit our Privacy Policy to learn more. By continuing to use the site, you agree to this use of cookies and data.
  • In Lithuania
  • List of Countries
  • For 7 days
  • Water Temperature
  • Weather Map
  • Weather Widgets
  • user-avatar
    Login

    Hourly Weather Glubokoe

    Today, 3 June, Wednesday

    Time Temperature Precipitation Wind Pressure Humidity
    00:00 +7°C° 0 mm 4 mps 741 mmHg 95%
    01:00 +7°C° 0 mm 4 mps 741 mmHg 95%
    02:00 +8°C° 0 mm 3 mps 741 mmHg 96%
    03:00 +8°C° 0 mm 3 mps 740 mmHg 95%
    04:00 +7°C° 0 mm 4 mps 740 mmHg 95%
    05:00 +7°C° 0 mm 4 mps 739 mmHg 94%
    06:00 +8°C° 0 mm 4 mps 740 mmHg 92%
    07:00 +8°C° 0 mm 4 mps 740 mmHg 89%
    08:00 +10°C° 0 mm 4 mps 740 mmHg 87%
    09:00 +10°C° 0.1 mm 4 mps 740 mmHg 85%
    10:00 +11°C° 0.1 mm 3 mps 740 mmHg 83%
    11:00 +11°C° 0.1 mm 3 mps 740 mmHg 81%
    12:00 +12°C° 0.6 mm 3 mps 739 mmHg 78%
    13:00 +13°C° 0.6 mm 3 mps 739 mmHg 75%
    14:00 +15°C° 0.6 mm 2 mps 739 mmHg 72%
    15:00 +14°C° 1 mm 3 mps 739 mmHg 73%
    16:00 +14°C° 1 mm 3 mps 738 mmHg 75%
    17:00 +14°C° 1 mm 3 mps 738 mmHg 76%
    18:00 +14°C° 0.6 mm 2 mps 738 mmHg 80%
    19:00 +13°C° 0.6 mm 2 mps 738 mmHg 85%
    20:00 +12°C° 0.6 mm 2 mps 737 mmHg 89%
    21:00 +11°C° 0 mm 1 mps 737 mmHg 90%
    22:00 +10°C° 0 mm 1 mps 737 mmHg 92%
    23:00 +10°C° 0 mm 1 mps 737 mmHg 93%

    Tomorrow, 4 June, Thursday

    Time Temperature Precipitation Wind Pressure Humidity
    00:00 +9°C° 0.1 mm 1 mps 737 mmHg 94%
    01:00 +9°C° 0.1 mm 1 mps 737 mmHg 94%
    02:00 +9°C° 0.1 mm 1 mps 737 mmHg 95%
    03:00 +8°C° 0.1 mm 1 mps 737 mmHg 96%
    04:00 +8°C° 0.1 mm 1 mps 737 mmHg 96%
    05:00 +8°C° 0.1 mm 1 mps 737 mmHg 97%
    06:00 +9°C° 0 mm 1 mps 737 mmHg 93%
    07:00 +11°C° 0 mm 1 mps 737 mmHg 89%
    08:00 +12°C° 0 mm 1 mps 737 mmHg 85%
    09:00 +13°C° 0.3 mm 2 mps 737 mmHg 79%
    10:00 +14°C° 0.3 mm 2 mps 737 mmHg 74%
    11:00 +16°C° 0.3 mm 2 mps 737 mmHg 68%
    12:00 +16°C° 0.2 mm 2 mps 737 mmHg 65%
    13:00 +17°C° 0.2 mm 3 mps 737 mmHg 61%
    14:00 +18°C° 0.2 mm 3 mps 736 mmHg 57%
    15:00 +18°C° 0.1 mm 3 mps 736 mmHg 58%
    16:00 +18°C° 0.1 mm 3 mps 736 mmHg 58%
    17:00 +18°C° 0.1 mm 3 mps 736 mmHg 59%
    18:00 +17°C° 0 mm 2 mps 736 mmHg 65%
    19:00 +16°C° 0 mm 1 mps 736 mmHg 70%
    20:00 +14°C° 0 mm 1 mps 736 mmHg 76%
    21:00 +13°C° 0 mm 1 mps 736 mmHg 79%
    22:00 +12°C° 0 mm 1 mps 736 mmHg 81%
    23:00 +11°C° 0 mm 1 mps 736 mmHg 84%

    Day after tomorrow, 5 June, Friday

    Time Temperature Precipitation Wind Pressure Humidity
    00:00 +11°C° 0 mm 1 mps 736 mmHg 86%
    01:00 +10°C° 0 mm 2 mps 736 mmHg 87%
    02:00 +10°C° 0 mm 2 mps 736 mmHg 89%
    03:00 +10°C° 0 mm 2 mps 736 mmHg 90%
    04:00 +9°C° 0 mm 3 mps 735 mmHg 91%
    05:00 +9°C° 0 mm 3 mps 735 mmHg 92%
    06:00 +11°C° 0 mm 4 mps 735 mmHg 89%
    07:00 +13°C° 0 mm 5 mps 735 mmHg 85%
    08:00 +15°C° 0 mm 5 mps 735 mmHg 82%
    09:00 +16°C° 0.1 mm 5 mps 735 mmHg 81%
    10:00 +17°C° 0.1 mm 5 mps 735 mmHg 81%
    11:00 +19°C° 0.1 mm 5 mps 734 mmHg 80%
    12:00 +20°C° 0.5 mm 5 mps 734 mmHg 78%
    13:00 +21°C° 0.5 mm 5 mps 734 mmHg 76%
    14:00 +22°C° 0.5 mm 5 mps 734 mmHg 74%
    15:00 +22°C° 1.1 mm 5 mps 734 mmHg 77%
    16:00 +22°C° 1.1 mm 5 mps 735 mmHg 79%
    17:00 +21°C° 1.1 mm 6 mps 735 mmHg 82%
    18:00 +20°C° 0.3 mm 5 mps 735 mmHg 84%
    19:00 +19°C° 0.3 mm 4 mps 735 mmHg 87%
    20:00 +18°C° 0.3 mm 3 mps 736 mmHg 89%
    21:00 +17°C° 0.4 mm 2 mps 736 mmHg 91%
    22:00 +16°C° 0.4 mm 2 mps 736 mmHg 93%
    23:00 +15°C° 0.4 mm 1 mps 737 mmHg 95%

    6 June, Saturday

    Time Temperature Precipitation Wind Pressure Humidity
    00:00 +15°C° 1.4 mm 2 mps 737 mmHg 95%
    01:00 +15°C° 1.4 mm 4 mps 737 mmHg 95%
    02:00 +15°C° 1.4 mm 5 mps 737 mmHg 96%
    03:00 +14°C° 0.8 mm 4 mps 738 mmHg 96%
    04:00 +13°C° 0.8 mm 3 mps 738 mmHg 96%
    05:00 +12°C° 0.8 mm 3 mps 738 mmHg 96%
    06:00 +13°C° 0 mm 3 mps 739 mmHg 92%
    07:00 +14°C° 0 mm 3 mps 740 mmHg 87%
    08:00 +16°C° 0 mm 3 mps 740 mmHg 83%
    09:00 +17°C° 0 mm 4 mps 741 mmHg 78%
    10:00 +17°C° 0 mm 5 mps 741 mmHg 72%
    11:00 +20°C° 0 mm 6 mps 742 mmHg 67%
    12:00 +20°C° 0 mm 6 mps 742 mmHg 65%
    13:00 +21°C° 0 mm 6 mps 742 mmHg 63%
    14:00 +21°C° 0 mm 6 mps 742 mmHg 61%
    15:00 +21°C° 0 mm 6 mps 743 mmHg 64%
    16:00 +21°C° 0 mm 5 mps 743 mmHg 66%
    17:00 +21°C° 0 mm 5 mps 743 mmHg 68%
    18:00 +20°C° 0 mm 4 mps 743 mmHg 73%
    19:00 +19°C° 0 mm 3 mps 743 mmHg 78%
    20:00 +18°C° 0 mm 2 mps 744 mmHg 83%
    21:00 +17°C° 0 mm 2 mps 744 mmHg 85%
    22:00 +16°C° 0 mm 2 mps 744 mmHg 86%
    23:00 +15°C° 0 mm 2 mps 745 mmHg 88%

    7 June, Sunday

    Time Temperature Precipitation Wind Pressure Humidity
    00:00 +15°C° 0 mm 2 mps 745 mmHg 89%
    01:00 +15°C° 0 mm 2 mps 745 mmHg 90%
    02:00 +14°C° 0 mm 2 mps 745 mmHg 91%
    03:00 +14°C° 0 mm 2 mps 745 mmHg 91%
    04:00 +14°C° 0 mm 1 mps 745 mmHg 90%
    05:00 +15°C° 0 mm 1 mps 746 mmHg 89%
    06:00 +16°C° 0 mm 2 mps 746 mmHg 85%
    07:00 +18°C° 0 mm 3 mps 746 mmHg 81%
    08:00 +19°C° 0 mm 3 mps 746 mmHg 77%
    09:00 +21°C° 0 mm 4 mps 746 mmHg 73%
    10:00 +22°C° 0 mm 4 mps 746 mmHg 69%
    11:00 +23°C° 0 mm 5 mps 746 mmHg 64%
    12:00 +23°C° 0 mm 5 mps 746 mmHg 68%
    13:00 +22°C° 0 mm 5 mps 745 mmHg 71%
    14:00 +22°C° 0 mm 4 mps 744 mmHg 74%
    15:00 +22°C° 0.4 mm 5 mps 744 mmHg 77%
    16:00 +21°C° 0.4 mm 5 mps 744 mmHg 80%
    17:00 +21°C° 0.4 mm 5 mps 743 mmHg 83%
    18:00 +21°C° 1.3 mm 5 mps 743 mmHg 84%
    19:00 +20°C° 1.3 mm 4 mps 743 mmHg 85%
    20:00 +20°C° 1.3 mm 4 mps 743 mmHg 86%
    21:00 +19°C° 0.2 mm 4 mps 743 mmHg 88%
    22:00 +18°C° 0.2 mm 4 mps 743 mmHg 89%
    23:00 +17°C° 0.2 mm 4 mps 743 mmHg 91%

    8 June, Monday

    Time Temperature Precipitation Wind Pressure Humidity
    00:00 +17°C° 0 mm 4 mps 743 mmHg 92%
    01:00 +15°C° 0 mm 4 mps 743 mmHg 93%
    02:00 +15°C° 0 mm 4 mps 742 mmHg 94%
    03:00 +15°C° 0 mm 4 mps 742 mmHg 95%
    04:00 +15°C° 0 mm 4 mps 742 mmHg 96%
    05:00 +14°C° 0 mm 3 mps 742 mmHg 96%
    06:00 +17°C° 0 mm 3 mps 742 mmHg 93%
    07:00 +18°C° 0 mm 3 mps 742 mmHg 90%
    08:00 +19°C° 0 mm 3 mps 743 mmHg 86%
    09:00 +21°C° 0 mm 3 mps 743 mmHg 80%
    10:00 +24°C° 0 mm 3 mps 743 mmHg 74%
    11:00 +25°C° 0 mm 3 mps 743 mmHg 68%
    12:00 +26°C° 0.1 mm 3 mps 743 mmHg 66%
    13:00 +26°C° 0.1 mm 3 mps 743 mmHg 64%
    14:00 +27°C° 0.1 mm 3 mps 743 mmHg 62%
    15:00 +27°C° 0.2 mm 3 mps 743 mmHg 63%
    16:00 +27°C° 0.2 mm 3 mps 742 mmHg 65%
    17:00 +27°C° 0.2 mm 3 mps 742 mmHg 67%
    18:00 +25°C° 0.8 mm 2 mps 742 mmHg 73%
    19:00 +24°C° 0.8 mm 2 mps 743 mmHg 79%
    20:00 +21°C° 0.8 mm 2 mps 743 mmHg 84%
    21:00 +22°C° 0.2 mm 1 mps 743 mmHg 86%
    22:00 +21°C° 0.2 mm 1 mps 743 mmHg 88%
    23:00 +20°C° 0.2 mm 1 mps 744 mmHg 89%
    Show more